• In Österreich
  • Länderverzeichnis
  • Für 7 Tage
  • Wassertemperatur
  • Satellitenkarten
  • Wetterkarte
  • News
  • Widgets
  • user-avatar
    Anmelden

    Stündliche Wetter Gryazivka

    Heute, 17 August, Freitag

    Zeit Temperatur Niederschläge Wind Luftdruck Luftfeuchtigkeit
    00:00 +16°C° 0 mm 2 m/S 748 mmHg 95%
    01:00 +15°C° 0 mm 2 m/S 748 mmHg 96%
    02:00 +15°C° 0 mm 2 m/S 748 mmHg 95%
    03:00 +15°C° 0 mm 2 m/S 748 mmHg 96%
    04:00 +15°C° 0 mm 2 m/S 748 mmHg 96%
    05:00 +14°C° 0 mm 2 m/S 749 mmHg 96%
    06:00 +16°C° 0 mm 2 m/S 749 mmHg 93%
    07:00 +17°C° 0 mm 2 m/S 749 mmHg 90%
    08:00 +18°C° 0 mm 3 m/S 749 mmHg 87%
    09:00 +20°C° 0 mm 3 m/S 749 mmHg 81%
    10:00 +21°C° 0 mm 3 m/S 749 mmHg 76%
    11:00 +24°C° 0 mm 3 m/S 749 mmHg 70%
    12:00 +24°C° 0 mm 3 m/S 749 mmHg 69%
    13:00 +25°C° 0 mm 3 m/S 749 mmHg 68%
    14:00 +25°C° 0 mm 3 m/S 749 mmHg 67%
    15:00 +25°C° 0 mm 3 m/S 748 mmHg 69%
    16:00 +25°C° 0 mm 3 m/S 748 mmHg 71%
    17:00 +24°C° 0 mm 3 m/S 748 mmHg 73%
    18:00 +22°C° 0 mm 3 m/S 748 mmHg 78%
    19:00 +20°C° 0 mm 3 m/S 748 mmHg 84%
    20:00 +19°C° 0 mm 2 m/S 748 mmHg 90%
    21:00 +18°C° 0 mm 3 m/S 748 mmHg 90%
    22:00 +17°C° 0 mm 3 m/S 748 mmHg 90%
    23:00 +17°C° 0 mm 3 m/S 748 mmHg 90%

    Morgen, 18 August, Samstag

    Zeit Temperatur Niederschläge Wind Luftdruck Luftfeuchtigkeit
    00:00 +16°C° 0 mm 3 m/S 748 mmHg 90%
    01:00 +16°C° 0 mm 3 m/S 748 mmHg 91%
    02:00 +16°C° 0 mm 3 m/S 748 mmHg 91%
    03:00 +14°C° 0 mm 3 m/S 748 mmHg 92%
    04:00 +14°C° 0 mm 3 m/S 748 mmHg 92%
    05:00 +14°C° 0 mm 3 m/S 748 mmHg 93%
    06:00 +16°C° 0 mm 3 m/S 749 mmHg 89%
    07:00 +18°C° 0 mm 3 m/S 749 mmHg 84%
    08:00 +19°C° 0 mm 3 m/S 749 mmHg 80%
    09:00 +21°C° 0 mm 3 m/S 749 mmHg 76%
    10:00 +22°C° 0 mm 3 m/S 749 mmHg 72%
    11:00 +25°C° 0 mm 3 m/S 749 mmHg 68%
    12:00 +25°C° 0 mm 4 m/S 748 mmHg 66%
    13:00 +26°C° 0 mm 4 m/S 748 mmHg 65%
    14:00 +26°C° 0 mm 4 m/S 748 mmHg 64%
    15:00 +26°C° 0,3 mm 4 m/S 748 mmHg 68%
    16:00 +25°C° 0,3 mm 3 m/S 748 mmHg 72%
    17:00 +25°C° 0,3 mm 3 m/S 748 mmHg 76%
    18:00 +23°C° 0,2 mm 2 m/S 748 mmHg 79%
    19:00 +21°C° 0,2 mm 2 m/S 748 mmHg 83%
    20:00 +20°C° 0,2 mm 2 m/S 748 mmHg 87%
    21:00 +19°C° 0,3 mm 2 m/S 748 mmHg 87%
    22:00 +19°C° 0,3 mm 3 m/S 748 mmHg 87%
    23:00 +18°C° 0,3 mm 3 m/S 748 mmHg 87%

    übermorgen, 19 August, Sonntag

    Zeit Temperatur Niederschläge Wind Luftdruck Luftfeuchtigkeit
    00:00 +18°C° 0,1 mm 3 m/S 747 mmHg 88%
    01:00 +17°C° 0,1 mm 3 m/S 747 mmHg 88%
    02:00 +17°C° 0,1 mm 3 m/S 747 mmHg 89%
    03:00 +16°C° 0 mm 3 m/S 747 mmHg 90%
    04:00 +16°C° 0 mm 3 m/S 747 mmHg 91%
    05:00 +16°C° 0 mm 3 m/S 747 mmHg 92%
    06:00 +17°C° 0 mm 3 m/S 747 mmHg 90%
    07:00 +19°C° 0 mm 3 m/S 747 mmHg 87%
    08:00 +20°C° 0 mm 3 m/S 747 mmHg 84%
    09:00 +21°C° 0,3 mm 3 m/S 747 mmHg 81%
    10:00 +23°C° 0,3 mm 4 m/S 747 mmHg 78%
    11:00 +25°C° 0,3 mm 4 m/S 747 mmHg 74%
    12:00 +25°C° 1,1 mm 4 m/S 747 mmHg 73%
    13:00 +26°C° 1,1 mm 4 m/S 746 mmHg 72%
    14:00 +26°C° 1,1 mm 4 m/S 746 mmHg 72%
    15:00 +26°C° 0,7 mm 3 m/S 746 mmHg 74%
    16:00 +26°C° 0,7 mm 3 m/S 746 mmHg 76%
    17:00 +25°C° 0,7 mm 2 m/S 746 mmHg 77%
    18:00 +24°C° 0,4 mm 2 m/S 746 mmHg 82%
    19:00 +21°C° 0,4 mm 2 m/S 746 mmHg 86%
    20:00 +20°C° 0,4 mm 2 m/S 746 mmHg 90%
    21:00 +19°C° 0,1 mm 2 m/S 746 mmHg 90%
    22:00 +18°C° 0,1 mm 2 m/S 746 mmHg 90%
    23:00 +18°C° 0,1 mm 2 m/S 746 mmHg 91%

    20 August, Montag

    Zeit Temperatur Niederschläge Wind Luftdruck Luftfeuchtigkeit
    00:00 +17°C° 0,2 mm 2 m/S 746 mmHg 90%
    01:00 +17°C° 0,2 mm 2 m/S 745 mmHg 89%
    02:00 +16°C° 0,2 mm 2 m/S 745 mmHg 88%
    03:00 +16°C° 0 mm 2 m/S 745 mmHg 88%
    04:00 +16°C° 0 mm 2 m/S 745 mmHg 89%
    05:00 +15°C° 0 mm 2 m/S 745 mmHg 90%
    06:00 +17°C° 0 mm 2 m/S 745 mmHg 88%
    07:00 +18°C° 0 mm 2 m/S 746 mmHg 86%
    08:00 +19°C° 0 mm 2 m/S 746 mmHg 84%
    09:00 +20°C° 0 mm 2 m/S 746 mmHg 80%
    10:00 +21°C° 0 mm 3 m/S 746 mmHg 75%
    11:00 +22°C° 0 mm 3 m/S 746 mmHg 70%
    12:00 +24°C° 0 mm 3 m/S 746 mmHg 69%
    13:00 +24°C° 0 mm 3 m/S 746 mmHg 67%
    14:00 +25°C° 0 mm 3 m/S 746 mmHg 66%
    15:00 +25°C° 0 mm 3 m/S 746 mmHg 67%
    16:00 +25°C° 0 mm 3 m/S 746 mmHg 69%
    17:00 +25°C° 0 mm 2 m/S 745 mmHg 70%
    18:00 +23°C° 0,1 mm 2 m/S 746 mmHg 75%
    19:00 +20°C° 0,1 mm 2 m/S 746 mmHg 81%
    20:00 +20°C° 0,1 mm 1 m/S 746 mmHg 86%
    21:00 +19°C° 0,1 mm 1 m/S 746 mmHg 88%
    22:00 +19°C° 0,1 mm 1 m/S 746 mmHg 89%
    23:00 +18°C° 0,1 mm 1 m/S 746 mmHg 91%

    21 August, Dienstag

    Zeit Temperatur Niederschläge Wind Luftdruck Luftfeuchtigkeit
    00:00 +18°C° 0 mm 1 m/S 746 mmHg 92%
    01:00 +18°C° 0 mm 1 m/S 746 mmHg 93%
    02:00 +16°C° 0 mm 1 m/S 746 mmHg 94%
    03:00 +16°C° 0 mm 1 m/S 746 mmHg 94%
    04:00 +16°C° 0 mm 1 m/S 746 mmHg 95%
    05:00 +16°C° 0 mm 1 m/S 746 mmHg 95%
    06:00 +18°C° 0 mm 1 m/S 746 mmHg 92%
    07:00 +19°C° 0 mm 1 m/S 746 mmHg 89%
    08:00 +20°C° 0 mm 2 m/S 746 mmHg 86%
    09:00 +21°C° 0 mm 2 m/S 746 mmHg 81%
    10:00 +23°C° 0 mm 2 m/S 746 mmHg 76%
    11:00 +24°C° 0 mm 3 m/S 746 mmHg 71%
    12:00 +25°C° 0,1 mm 3 m/S 746 mmHg 69%
    13:00 +25°C° 0,1 mm 3 m/S 746 mmHg 68%
    14:00 +26°C° 0,1 mm 3 m/S 745 mmHg 66%
    15:00 +26°C° 0,1 mm 3 m/S 745 mmHg 68%
    16:00 +26°C° 0,1 mm 3 m/S 745 mmHg 70%
    17:00 +26°C° 0,1 mm 2 m/S 745 mmHg 72%
    18:00 +24°C° 0,5 mm 2 m/S 745 mmHg 77%
    19:00 +21°C° 0,5 mm 2 m/S 745 mmHg 82%
    20:00 +20°C° 0,5 mm 2 m/S 744 mmHg 87%
    21:00 +19°C° 0,1 mm 2 m/S 744 mmHg 88%
    22:00 +19°C° 0,1 mm 3 m/S 744 mmHg 90%
    23:00 +18°C° 0,1 mm 3 m/S 744 mmHg 92%

    22 August, Mittwoch

    Zeit Temperatur Niederschläge Wind Luftdruck Luftfeuchtigkeit
    00:00 +18°C° 0 mm 3 m/S 744 mmHg 92%
    01:00 +18°C° 0 mm 3 m/S 744 mmHg 92%
    02:00 +18°C° 0 mm 4 m/S 743 mmHg 92%
    03:00 +18°C° 0,1 mm 4 m/S 743 mmHg 93%
    04:00 +18°C° 0,1 mm 3 m/S 743 mmHg 94%
    05:00 +18°C° 0,1 mm 3 m/S 743 mmHg 95%
    06:00 +18°C° 0 mm 3 m/S 744 mmHg 92%
    07:00 +19°C° 0 mm 3 m/S 744 mmHg 90%
    08:00 +20°C° 0 mm 3 m/S 744 mmHg 87%
    09:00 +21°C° 0,1 mm 4 m/S 744 mmHg 83%
    10:00 +22°C° 0,1 mm 4 m/S 744 mmHg 78%
    11:00 +23°C° 0,1 mm 4 m/S 744 mmHg 74%
    12:00 +23°C° 0 mm 4 m/S 744 mmHg 70%
    13:00 +25°C° 0 mm 4 m/S 744 mmHg 66%
    14:00 +25°C° 0 mm 4 m/S 744 mmHg 62%
    15:00 +25°C° 0 mm 4 m/S 744 mmHg 64%
    16:00 +25°C° 0 mm 3 m/S 743 mmHg 65%
    17:00 +25°C° 0 mm 2 m/S 743 mmHg 67%
    18:00 +23°C° 0 mm 2 m/S 743 mmHg 71%
    19:00 +20°C° 0 mm 2 m/S 743 mmHg 75%
    20:00 +19°C° 0 mm 2 m/S 743 mmHg 79%
    21:00 +18°C° 0 mm 2 m/S 743 mmHg 82%
    22:00 +18°C° 0 mm 3 m/S 743 mmHg 84%
    23:00 +17°C° 0 mm 3 m/S 743 mmHg 86%
    Mehr zeigen